EDT,Max TemperatureF,Mean TemperatureF,Min TemperatureF,Max Dew PointF,MeanDew PointF,Min DewpointF,Max Humidity, Mean Humidity, Min Humidity, Max Sea Level PressureIn, Mean Sea Level PressureIn, Min Sea Level PressureIn, Max VisibilityMiles, Mean VisibilityMiles, Min VisibilityMiles, Max Wind SpeedMPH, Mean Wind SpeedMPH, Max Gust SpeedMPH,PrecipitationIn, CloudCover, Events, WindDirDegrees
2013-9-1,80,74,68,70,68,66,93,81,69,29.81,29.78,29.75,10,9,5,9,4,,0.01,5,Rain,200
2013-9-2,82,72,61,68,64,54,100,81,41,29.94,29.82,29.76,10,4,0,17,4,22,0.00,4,Fog,306
2013-9-3,78,67,55,54,51,48,87,63,39,30.06,30.01,29.94,10,10,10,9,6,,0.00,4,,344
2013-9-4,84,66,50,57,51,48,97,74,33,30.13,30.09,30.05,10,7,0,8,1,18,0.00,0,Fog,241
2013-9-5,78,68,55,57,46,32,90,55,19,30.25,30.20,30.12,10,10,10,14,3,17,0.00,1,,12
2013-9-6,79,62,46,51,47,44,93,60,29,30.29,30.21,30.10,10,10,10,7,1,,0.00,0,,158
2013-9-7,88,71,55,62,56,45,74,58,39,30.09,30.00,29.92,10,10,10,14,4,23,0.00,3,,225
2013-9-8,78,70,62,65,62,56,94,75,60,30.07,30.02,29.94,10,8,4,13,5,16,0.00,5,,66
2013-9-9,91,76,60,68,61,53,80,65,42,30.06,29.99,29.90,10,10,9,13,5,18,0.00,2,,172
2013-9-10,98,86,75,71,66,60,87,56,29,30.05,30.00,29.94,10,8,3,14,8,23,0.00,0,,219
2013-9-11,97,83,70,68,66,61,90,58,31,30.09,30.01,29.94,10,9,6,16,7,26,0.00,1,Thunderstorm,232
2013-9-12,84,71,59,68,63,52,93,78,34,30.01,29.94,29.84,10,7,2,13,4,29,0.50,5,Rain-Thunderstorm,300
2013-9-13,64,55,46,51,45,41,83,68,45,30.15,30.08,30.00,10,10,9,16,9,22,0.00,3,,347
2013-9-14,71,56,41,43,38,31,92,62,24,30.23,30.16,30.12,10,10,10,5,0,,0.00,0,,-1
2013-9-15,72,58,44,54,46,41,93,72,36,30.15,30.11,30.02,10,9,4,12,2,18,0.12,3,Rain,174
2013-9-16,68,59,50,55,51,45,94,79,45,30.36,30.25,30.13,10,8,3,10,5,17,0.01,6,,25
2013-9-17,72,57,42,49,45,40,93,68,36,30.40,30.33,30.22,10,10,10,10,4,16,0.00,0,,78
2013-9-18,81,66,51,55,51,47,89,68,34,30.20,30.12,30.03,10,10,8,5,1,,0.00,0,,150
2013-9-19,81,70,61,67,63,54,94,80,56,30.06,30.01,29.94,10,8,2,9,3,18,0.09,3,Rain,193
2013-9-20,82,76,68,70,67,64,94,83,58,29.93,29.83,29.76,10,7,2,14,7,20,0.18,6,Rain,210
2013-9-21,72,62,52,65,55,45,94,76,39,29.90,29.78,29.73,10,9,3,17,5,23,0.10,5,Rain,306
2013-9-22,64,55,46,47,42,39,89,66,43,30.08,30.00,29.90,10,10,10,12,6,17,0.00,1,,358
2013-9-23,64,52,41,46,43,38,93,73,50,30.18,30.14,30.09,10,10,10,9,3,,0.00,4,,76
2013-9-24,70,54,37,48,42,35,93,73,38,30.16,30.09,29.99,10,8,0,9,2,17,0.00,1,Fog,83
2013-9-25,73,58,44,53,48,43,100,78,43,30.01,29.97,29.93,10,6,1,10,3,,0.00,0,,43
2013-9-26,79,62,46,55,46,41,100,74,28,30.13,30.05,29.99,10,5,0,9,4,,0.00,0,Fog,28
2013-9-27,79,62,44,58,48,42,96,77,35,30.23,30.19,30.14,10,7,0,12,3,17,0.00,2,Fog,60
2013-9-28,82,64,46,53,48,44,100,76,29,30.19,30.14,30.02,10,5,0,10,1,,0.00,2,Fog,182
2013-9-29,66,62,57,63,58,51,100,88,57,30.02,30.00,29.98,10,4,0,10,6,,0.17,7,Fog-Rain,220
2013-9-30,73,63,54,58,55,51,100,86,49,30.04,30.00,29.94,10,6,0,9,1,,0.01,6,Fog,205